カタログに戻る

NOAA 16 DEB

運用中PO
NORAD 41130·DEBRIS·🇺🇸 United States

打ち上げ Sep 21, 2000 から Vandenberg Space Force Base

Loading…

次のパス (今後24時間)

TLE

最新Source: Space-Track

元期: Sep 14, 2026, 07:05 UTC

1 41130U 00055BM  26257.29569413  .00003059  00000-0  95402-3 0  9990
2 41130  98.9513  59.5766 0017362 243.2028 116.7384 14.41543316559656

AllMySatでNOAA 16 DEBをリアルタイム追跡

Download on the App Store